Probability
0 0 0 0 0 0 0 0 0 0 0 0 0 0 0 0 0 0 0 0 0 0 0 0 0 0 0 0 0 0 0 0 0 0 0 0 0 0 0 0 0 0 0 0
0 0 0 0 0 0 0 0 0 0 0 0 0 0 0 0 0 0 0 0 0 0 0 0 0 0 0 0 0 0 0 0 0 0 0 0 0 0 0 0 0 0 0 0
0 0 0 0 0 0 0 0 0 0 0 0 0 0 0 0 0 0 0 0 0 0 0 0 0 0 0 0 0 0 0 0 0 0 0 0 0 0 0 0 0 0 0 0
0 0 0 0 0 0 0 0 0 0 0 0 0 0 0 0 0 0 0 0 0 0 0 0 0 0 0 0 0 0 0 0 0 0 0 0 0 0 0 0 0 0 0 0
0 0 0 0 0 0 0 0 0 0 0 0 0 0 0 0 0 0 0 0 0 0 0 0 0 0 0 0 0 0 0 0 0 0 0 0 0 0 0 0 0 0 0 0
0 0 0 0 0 0 0 0 0 0 0 0 0 0 0 0 0 0 0 0 0 0 0 0 0 0 0 0 0 0 0 0 0 0 0 0 0 0 0 0 0 0 0 0
0 0 0 0 0 0 0 0 0 0 0 0 0 0 0 0 0 0 0 0 0 0 0 0 0 0 0 0 0 0 0 0 0 0 0 0 0 0 0 0 0 0 0 0
0 0 0 0 0 0 0 0 0 0 0 0 0 0 0 0 0 0 0 0 0 0 0 0 0 0 0 0 0 0 0 0 0 0 0 0 0 0 0 0 0 0 0 0
0 0 0 0 0 0 0 0 0 0 0 0 0 0 0 0 0 0 0 0 0 0 0 0 0 0 0 0 0 0 0 0 0 0 0 0 0 0 0 0 0 0 0 0
0 0 0 0 0 0 0 0 0 0 0 0 0 0 0 0 0 0 0 0 0 0 0 0 0 0 0 0 0 0 0 0 0 0 0 0 0 0 0 0 0 0 0 0
0 0 0 0 0 0 0 0 0 0 0 0 0 0 0 0 0 0 0 0 0 0 0 0 0 0 0 0 0 0 0 0 0 0 0 0 0 0 0 0 0 0 0 0
0 0 0 0 0 0 0 0 0 0 0 0 0 0 0 0 0 0 0 0 0 0 0 0 0 0 0 0 0 0 0 0 0 0 0 0 0 0 0 0 0 0 0 0
0 0 0 0 0 0 0 0 0 0 0 0 0 0 0 0 0 0 0 0 0 0 0 0 0 0 0 0 0 0 0 0 0 0 0 0 0 0 0 0 0 0 0 0
0 0 0 0 0 0 0 0 0 0 0 0 0 0 0 0 0 0 0 0 0 0 0 0 0 0 0 0 0 0 0 0 0 0 0 0 0 0 0 0 0 0 0 0
0 0 0 0 0 0 0 0 0 0 0 0 0 0 0 0 0 0 0 0 0 0 0 0 0 0 0 0 0 0 0 0 0 0 0 0 0 0 0 0 0 0 0 0
0 0 0 0 0 0 0 0 0 0 0 0 0 0 0 0 0 0 0 0 0 0 0 0 0 0 0 0 0 0 0 0 0 0 0 0 0 0 0 0 0 0 0 0
0 0 0 0 0 0 0 0 0 0 0 0 0 0 0 0 0 0 0 0 0 0 0 0 0 0 0 0 0 0 0 0 0 0 0 0 0 0 0 0 0 0 0 0
0 0 0 0 0 0 0 0 0 0 0 0 0 0 0 0 0 0 0 0 0 0 0 0 0 0 0 0 0 0 0 0 0 0 0 0 0 0 0 0 0 0 0 0
0 0 0 0 0 0 0 0 0 0 0 0 0 0 0 0 0 0 0 0 0 0 0 0 0 0 0 0 0 0 0 0 0 0 0 0 0 0 0 0 0 0 0 0
0 0 0 0 0 0 0 0 0 0 0 0 0 0 0 0 0 0 0 0 0 0 0 0 0 0 0 0 0 0 0 0 0 0 0 0 0 0 0 0 0 0 0 0
0 0 0 0 0 0 0 0 0 0 0 0 0 0 0 0 0 0 0 0 0 0 0 0 0 0 0 0 0 0 0 0 0 0 0 0 0 0 0 0 0 0 0 0
0 0 0 0 0 0 0 0 0 0 0 0 0 0 0 0 0 0 0 0 0 0 0 0 0 0 0 0 0 0 0 0 0 0 0 0 0 0 0 0 0 0 0 0
0 0 0 0 0 0 0 0 0 0 0 0 0 0 0 0 0 0 0 0 0 0 0 0 0 0 0 0 0 0 0 0 0 0 0 0 0 0 0 0 0 0 0 0
0 0 0 0 0 0 0 0 0 0 0 0 0 0 0 0 0 0 0 0 0 0 0 0 0 0 0 0 0 0 0 0 0 0 0 0 0 0 0 0 0 0 0 0
0 0 0 0 0 0 0 0 0 0 0 0 0 0 0 0 0 0 0 0 0 0 0 0 0 0 0 0 0 0 0 0 0 0 0 0 0 0 0 0 0 0 0 0
0 0 0 0 0 0 0 0 0 0 0 0 0 0 0 0 0 0 0 0 0 0 0 0 0 0 0 0 0 0 0 0 0 0 0 0 0 0 0 0 0 0 0 0
0 0 0 0 0 0 0 0 0 0 0 0 0 0 0 0 0 0 0 0 0 0 0 0 0 0 0 0 0 0 0 0 0 0 0 0 0 0 0 0 0 0 0 0
Wind_Speed
3 3 3 5 6 7 7 5 5 7 7 6 5 5 5 5 6 6 6 6 7 6 6 6 7 7 7 7 7 7 7 7 6 6 5 5 4 4 3 3 2 2 2 2
1 2 3 5 7 6 6 6 7 8 6 5 6 5 5 4 5 5 5 6 6 6 6 6 6 6 6 6 6 6 6 6 6 6 6 5 5 4 4 3 3 2 3 3
1 1 1 3 4 4 4 4 3 4 5 6 5 5 4 3 4 4 4 4 5 5 5 5 5 5 5 5 5 6 6 6 6 6 6 6 6 5 5 4 3 3 3 4
1 2 1 1 1 2 3 4 4 5 6 5 5 4 3 4 4 4 4 4 4 4 4 4 4 4 5 5 5 5 5 5 6 6 6 6 5 6 6 5 4 4 4 4
1 1 2 3 1 1 1 1 3 4 5 5 4 3 3 4 5 4 4 3 3 3 3 4 4 4 5 5 5 5 6 6 6 6 7 7 6 6 5 5 5 5 5 5
1 2 1 3 3 1 1 1 3 4 5 4 2 1 1 3 4 4 4 3 3 3 3 3 4 4 4 5 5 6 6 6 6 6 7 7 7 6 5 5 6 6 6 5
1 1 0 3 2 1 1 2 3 4 4 3 2 2 3 4 3 2 2 2 2 3 3 3 3 3 4 5 5 5 6 6 7 7 7 7 6 6 6 6 6 6 7 6
1 2 3 4 3 1 2 3 3 4 4 4 4 4 3 2 1 1 1 2 2 2 3 3 3 3 5 5 5 5 6 6 7 7 7 6 6 6 6 6 6 7 7 7
1 2 2 3 2 3 3 3 3 3 4 4 3 2 1 1 0 1 2 2 2 3 4 4 4 4 5 6 5 5 6 7 7 7 7 6 6 7 6 5 5 6 6 6
3 2 4 4 4 3 3 3 4 4 4 3 2 1 0 0 1 2 2 2 2 4 5 5 5 5 5 6 5 6 7 7 7 7 7 6 6 5 5 5 6 6 6 6
4 2 3 4 5 5 4 4 4 3 3 2 1 0 0 1 2 2 2 2 3 4 5 6 6 6 6 6 6 6 7 7 7 7 7 6 6 6 6 6 7 9 7 7
5 4 4 3 5 6 6 4 4 3 2 1 1 1 1 2 2 2 3 4 4 5 6 7 7 7 7 6 6 6 6 7 6 6 6 6 6 7 10 11 15 17 16 14
3 3 4 5 5 5 5 4 3 3 2 1 1 1 1 2 2 3 4 5 5 6 6 7 7 8 7 7 6 6 7 7 6 7 7 7 6 7 8 10 13 15 16 17
5 5 3 3 4 4 4 4 3 2 1 1 0 1 2 3 3 5 5 5 6 6 7 7 8 8 7 7 7 7 7 9 9 7 7 7 7 7 7 8 9 8 10 15
4 3 4 5 5 5 4 4 3 2 1 1 0 1 2 3 5 5 6 6 6 7 7 8 8 9 7 7 7 8 8 7 7 7 7 7 7 7 7 8 9 9 7 9
6 5 5 5 5 5 4 4 3 3 2 1 1 2 3 4 5 6 6 6 6 8 8 8 9 9 8 7 8 8 7 12 11 8 7 7 7 7 8 8 8 8 8 7
9 7 6 6 6 5 4 3 2 1 1 1 2 2 3 4 6 7 7 6 6 7 8 8 9 8 8 8 8 7 7 9 13 9 7 7 7 8 8 8 8 8 7 8
7 7 7 6 6 5 4 2 2 1 0 1 1 2 4 5 6 7 7 7 8 8 8 7 7 8 8 9 8 7 7 8 8 8 8 8 8 7 7 8 8 9 7 8
6 7 6 6 5 5 4 3 2 1 0 0 2 3 4 5 6 7 7 8 9 9 8 7 14 10 9 10 12 7 8 9 9 9 8 12 11 7 7 8 8 8 8 7
6 7 7 6 5 4 3 2 2 1 0 1 2 4 5 6 6 6 7 7 6 6 7 9 10 8 9 9 13 7 8 9 9 9 9 8 8 8 7 7 8 7 7 7
7 7 7 6 4 3 3 2 1 0 1 1 2 4 5 6 6 6 6 8 7 7 8 13 9 8 8 11 13 8 8 9 9 9 8 8 8 8 7 7 7 7 7 7
6 6 6 5 4 3 2 2 1 0 1 2 3 4 5 6 6 6 6 6 6 12 9 6 7 12 15 16 8 8 8 9 8 8 8 8 8 8 7 7 7 7 6 6
5 5 5 5 4 3 1 1 1 0 2 3 3 4 4 5 5 5 7 5 6 13 10 7 13 19 21 11 7 8 8 9 8 8 8 8 8 8 7 7 7 7 6 5
5 5 4 4 3 2 1 0 0 1 2 3 3 3 4 4 4 3 4 11 15 16 8 12 19 20 17 7 7 7 8 8 8 8 8 8 7 7 6 7 7 6 6 6
5 5 4 4 3 1 1 0 1 1 2 2 3 3 3 2 4 5 5 7 13 14 8 12 18 18 10 7 7 8 8 8 9 8 7 7 6 6 6 6 6 6 5 5
4 4 3 3 2 2 1 0 1 1 1 2 3 3 3 3 4 4 5 6 9 12 9 7 8 10 7 7 8 8 8 9 9 8 7 7 7 7 6 6 7 6 5 5
4 3 3 2 2 2 1 1 1 1 1 2 3 3 3 4 4 5 6 6 6 7 6 6 6 6 6 7 7 7 7 7 7 7 7 7 6 6 6 7 6 5 5 5
Wind_Direction
62 59 42 38 27 25 31 33 83 111 114 126 116 107 98 92 85 75 64 55 49 46 41 36 30 24 21 16 10 4 6 8 3 355 353 354 350 342 335 326 303 274 248 226
63 86 73 50 30 35 36 47 89 102 93 106 107 97 91 87 82 72 62 53 46 42 38 32 27 18 12 7 0 358 360 358 352 350 349 346 340 332 325 313 295 273 248 229
14 303 288 47 22 28 52 42 61 93 112 120 112 105 99 93 91 81 65 54 46 37 29 21 17 12 3 354 350 352 351 349 350 348 343 338 333 328 319 307 295 277 261 244
323 340 32 115 43 34 68 56 57 84 103 109 108 104 89 80 73 66 53 39 33 25 17 11 8 5 354 348 348 347 346 345 345 341 333 327 324 320 315 309 297 285 273 259
344 303 166 142 149 44 53 97 98 113 110 97 96 98 82 72 68 65 57 46 30 15 1 358 358 358 350 342 343 342 340 338 334 329 324 321 315 308 304 299 294 286 279 266
340 331 337 132 118 62 1 161 121 119 123 123 128 155 154 90 72 61 50 38 19 358 352 349 347 350 337 327 329 326 324 322 319 314 310 306 301 296 291 285 280 280 274 264
293 286 99 120 132 155 175 169 128 113 118 125 109 103 103 82 70 61 42 15 358 344 333 323 326 325 311 308 304 302 306 306 305 303 299 295 293 291 289 284 280 274 270 264
234 251 239 149 156 171 145 120 111 102 101 101 98 95 88 80 64 31 0 338 335 321 305 299 299 298 294 291 291 299 303 300 298 295 294 295 292 291 288 286 283 280 275 272
259 202 138 156 118 99 100 116 108 103 98 107 114 121 117 106 337 317 316 317 317 308 301 298 296 295 292 291 298 301 300 296 295 295 293 292 288 288 287 281 280 280 274 273
279 220 166 166 146 131 110 108 101 100 103 110 123 125 125 281 290 298 304 306 308 305 299 296 298 295 288 292 297 296 293 293 293 295 294 293 290 284 282 280 280 280 278 275
255 220 159 187 177 158 138 121 115 109 106 108 113 122 292 290 293 300 304 305 305 298 293 293 297 296 294 294 294 291 289 289 290 289 289 290 287 281 281 271 276 285 282 278
220 191 170 170 157 148 149 155 151 143 136 119 127 264 299 295 300 307 306 304 298 292 291 295 298 295 294 291 289 288 290 291 290 290 288 286 288 289 282 281 289 289 286 283
148 88 91 111 122 133 144 143 138 144 156 178 231 281 299 298 301 301 299 297 294 294 295 296 295 293 292 292 291 284 282 286 287 287 287 287 286 287 293 293 286 287 289 290
128 121 130 154 146 135 128 124 120 122 141 186 230 306 302 298 299 298 296 297 298 298 296 294 293 291 293 295 292 286 282 283 284 281 281 283 283 281 283 289 295 291 288 290
163 155 141 130 125 126 124 127 143 189 210 234 258 280 289 293 294 295 298 301 299 294 293 294 294 295 300 302 298 292 288 283 279 278 279 280 282 281 280 280 282 286 289 289
154 136 131 142 153 154 157 171 193 212 212 236 271 285 293 295 295 296 297 298 299 297 298 298 294 295 303 304 300 294 287 286 288 285 281 280 279 278 278 278 279 281 282 284
149 168 176 179 180 179 180 182 186 193 206 253 287 309 311 306 301 299 301 304 299 295 295 294 294 302 309 307 300 294 291 293 294 291 282 280 279 278 279 279 278 278 278 282
168 168 166 164 165 165 167 160 151 153 208 286 325 317 305 300 298 301 306 313 312 305 299 297 307 317 314 309 304 298 296 294 292 290 288 284 282 278 277 277 279 280 281 283
139 137 137 134 135 140 146 153 156 153 118 345 307 295 294 294 295 301 309 312 309 305 306 317 325 325 313 308 310 301 298 296 294 292 291 290 289 281 278 279 280 280 280 280
128 126 122 117 112 120 130 130 122 113 337 314 300 299 301 302 305 307 307 300 290 292 308 321 323 315 310 306 311 304 301 297 295 294 293 290 288 287 284 283 284 285 284 280
137 133 130 128 123 120 126 130 135 215 290 294 290 294 298 302 306 307 306 304 303 313 322 324 323 312 310 313 314 308 304 301 300 298 297 296 294 292 291 290 291 291 290 290
143 140 140 138 137 134 130 132 143 240 303 302 297 297 302 306 309 306 295 291 310 324 328 317 314 314 319 322 315 309 307 306 304 303 301 301 300 299 299 298 297 295 294 293
142 142 142 143 145 145 139 140 142 257 286 290 293 297 299 300 304 307 309 313 321 322 324 312 316 321 325 327 317 312 309 308 307 305 304 302 302 301 300 300 299 299 298 298
138 136 134 128 125 129 150 185 235 269 274 280 282 287 293 301 301 291 296 317 323 322 320 316 323 327 331 327 315 313 313 312 309 307 305 304 303 304 303 302 302 301 301 302
137 135 135 138 147 166 175 136 311 294 296 297 300 302 295 287 295 307 310 312 319 323 319 320 325 329 330 318 317 316 315 312 312 313 311 311 309 308 306 305 306 307 306 307
144 148 150 154 154 147 142 154 270 294 305 309 312 312 307 304 303 305 308 311 313 320 320 313 315 322 319 317 319 318 318 317 318 318 316 315 314 312 312 313 313 311 308 305
137 140 141 145 146 142 143 171 248 285 301 303 306 307 310 312 310 313 315 315 315 314 312 313 314 314 314 316 316 316 316 316 316 316 316 314 312 311 313 313 311 309 309 309